[[{"header":{"parameterUnit":"m.s-1","parameterCategory":1,"la1":30.2991,"la2":30.254,"lo1":-89.0895,"lo2":-89.0444,"dy":0.0017,"dx":0.0017,"nx":28,"ny":28,"refTime":"2024-03-20T21:00:00:Z","depth":0,"parameterNumber":2,"parameterNumberName":"U-component_of_WINDS"},"data":[0,0,0,0,0,0,0,0,0,0,0,0,0,0,0,0,0,0,0,0,0,0,0,0,0,0,0,0,0,0,0,0,0,0,0,0,0,0,0,0,0,0,0,0,0,0,0,0,0,0,0,0,0,0,0,0,0,0,-3.8334,-3.8334,0,-3.8291,-3.8291,-3.8291,-3.8202,-3.82,-3.8198,-3.8196,-3.8156,-3.8156,-3.8157,0,0,0,0,0,0,0,0,0,0,0,0,0,-3.8344,-3.8344,-3.8334,-3.8334,-3.8333,-3.8292,-3.8291,-3.829,-3.8202,-3.82,-3.8198,-3.8196,-3.8155,-3.8156,-3.8157,0,0,0,0,0,0,0,0,0,0,0,0,0,-3.8324,-3.8344,-3.8334,-3.8284,-3.8279,-3.8292,-3.8291,-3.829,-3.8202,-3.82,-3.8197,-3.8195,-3.8155,-3.8156,-3.8157,-3.8216,0,0,-3.816,-3.816,0,0,0,0,0,0,0,0,-3.8326,-3.8324,-3.8292,-3.8288,-3.8282,-3.8249,-3.8279,-3.8265,-3.8203,-3.8232,-3.8196,-3.8193,-3.8189,-3.8187,-3.8185,-3.8214,-3.8212,-3.816,-3.816,-3.816,-3.8161,0,0,0,0,0,0,0,-3.8327,-3.8326,-3.8317,-3.8292,-3.8286,-3.8265,-3.8259,-3.8276,-3.8226,-3.8229,-3.8222,-3.8218,-3.8186,-3.8184,-3.8183,-3.8212,-3.816,-3.816,-3.8161,-3.8161,-3.8289,-3.8292,0,0,0,0,0,0,-3.8335,-3.8327,-3.8319,-3.8316,-3.8298,-3.8267,-3.8261,-3.8262,-3.8226,-3.8217,-3.8221,-3.8214,-3.8184,-3.8182,-3.8182,-3.8249,-3.816,-3.8161,-3.8162,-3.8287,-3.829,-3.8293,0,0,0,0,0,0,-3.8336,-3.8335,-3.8321,-3.832,-3.8316,-3.827,-3.8273,-3.8263,-3.8261,-3.8219,-3.821,-3.8228,-3.8182,-3.818,-3.8208,-3.8247,-3.8162,-3.8162,-3.8283,-3.8288,-3.8292,-3.8385,0,0,0,0,0,0,-3.8336,-3.8336,-3.8357,-3.8321,-3.8317,-3.8347,-3.8275,-3.8264,-3.8263,-3.8254,-3.8224,-3.8216,-3.818,-3.8207,-3.8209,-3.8246,-3.8163,-3.828,-3.8285,-3.829,-3.8378,-3.8392,-3.8403,0,0,0,0,0,-3.8337,-3.8385,-3.8358,-3.8358,-3.8342,-3.8349,-3.8347,-3.8303,-3.8266,-3.8287,-3.8261,-3.8217,-3.8242,-3.8211,-3.8212,-3.825,-3.8277,-3.8284,-3.829,-3.8372,-3.8389,-3.8403,0,0,0,0,0,0,-3.8427,-3.8379,-3.8349,-3.8387,-3.8373,-3.8334,-3.8359,-3.8322,-3.8319,-3.8311,-3.8258,-3.8252,-3.8287,-3.8271,-3.8237,-3.8307,-3.8253,-3.826,-3.8315,-3.8331,-3.8343,-3.8346,-3.8164,0,0,0,0,0,-3.8451,-3.846,-3.8418,-3.8456,-3.845,-3.8407,-3.8408,-3.8376,-3.8359,-3.8353,-3.8328,-3.8315,-3.832,-3.8325,-3.8327,-3.8376,-3.8369,-3.8403,-3.8416,-3.8426,-3.8433,-3.8459,-3.8474,-3.8314,-3.8314,-3.8314,0,0,-3.8501,-3.8476,-3.8485,-3.8473,-3.8458,-3.847,-3.8402,-3.8417,-3.8426,-3.8356,-3.838,-3.8363,-3.8345,-3.8384,-3.84,-3.8372,-3.8476,-3.8434,-3.8443,-3.8444,-3.8467,-3.8483,-3.8496,-3.8319,-3.8318,-3.8317,0,0,-3.8598,-3.858,-3.8609,-3.8596,-3.8575,-3.8546,-3.8553,-3.8521,-3.8506,-3.853,-3.8478,-3.8489,-3.8498,-3.8488,-3.8484,-3.858,-3.8541,-3.8583,-3.8649,-3.8675,-3.8688,-3.8699,-3.8734,-3.8747,-3.859,-3.859,-3.859,0,-3.8663,-3.8677,-3.8629,-3.8648,-3.8645,-3.8582,-3.8613,-3.8603,-3.8584,-3.8584,-3.8553,-3.8565,-3.8548,-3.8585,-3.8609,-3.8607,-3.8615,-3.8585,-3.869,-3.87,-3.871,-3.8743,-3.8756,-3.8595,-3.8595,-3.8594,-3.8594,0,-3.8759,-3.877,-3.8797,-3.878,-3.878,-3.8805,-3.8762,-3.8769,-3.8737,-3.8712,-3.8739,-3.8717,-3.8714,-3.8721,-3.869,-3.8754,-3.8737,-3.8699,-3.8644,-3.8731,-3.8761,-3.8774,-3.8603,-3.8601,-3.8599,-3.8598,0,0,-3.8909,-3.8867,-3.8877,-3.887,-3.8843,-3.8851,-3.8874,-3.8871,-3.8878,-3.8868,-3.8887,-3.8898,-3.8863,-3.8858,-3.8826,-3.885,-3.8929,-3.8808,-3.8807,-3.8832,-3.9,-3.9029,-3.9044,-3.8903,-3.8905,-3.8907,-3.9001,0,-3.9,-3.9036,-3.8994,-3.9039,-3.905,-3.8992,-3.9012,-3.8999,-3.8977,-3.8984,-3.896,-3.8969,-3.8921,-3.8919,-3.8939,-3.8915,-3.8962,-3.8908,-3.8921,-3.8922,-3.8927,-3.906,-3.909,-3.918,-3.9013,-3.9015,-3.9016,0,-3.911,-3.9105,-3.9151,-3.9123,-3.9126,-3.9145,-3.914,-3.9147,-3.9132,-3.9115,-3.9111,-3.9073,-3.9096,-3.9043,-3.9074,-3.9038,-3.9042,-3.9031,-3.9034,-3.9033,-3.8974,-3.9063,-3.9208,-3.9222,-3.9034,-3.9033,-3.9032,0,-3.9217,-3.9221,-3.925,-3.9245,-3.9213,-3.9228,-3.9215,-3.9197,-3.9199,-3.9195,-3.9196,-3.9195,-3.9195,-3.9197,-3.916,-3.9125,-3.9197,-3.914,-3.9184,-3.9185,-3.9201,-3.9201,-3.9349,-3.9204,-3.9204,-3.9204,-3.9203,0,-3.9322,-3.9353,-3.9297,-3.9315,-3.9348,-3.9302,-3.9336,-3.9318,-3.9303,-3.9318,-3.9268,-3.9283,-3.9233,-3.9244,-3.9216,-3.9247,-3.9247,-3.9235,-3.9227,-3.9239,-3.9241,-3.924,-3.9233,-3.9207,-3.9206,-3.9206,-3.9205,0,-3.9446,-3.941,-3.9437,-3.9405,-3.9397,-3.9424,-3.9397,-3.9413,-3.9388,-3.9407,-3.9409,-3.9371,-3.9381,-3.9345,-3.9348,-3.933,-3.9376,-3.9358,-3.9381,-3.9375,-3.9421,-3.9418,-3.9574,-3.9593,-3.9436,-3.9438,-3.9439,0,-3.9515,-3.9538,-3.9508,-3.9514,-3.9504,-3.9514,-3.9515,-3.9471,-3.9475,-3.9461,-3.9479,-3.9485,-3.9486,-3.9505,-3.9479,-3.9482,-3.9464,-3.9519,-3.9464,-3.9476,-3.9466,-3.9465,-3.9467,-3.953,-3.9532,-3.9533,-3.9535,0,-3.9643,-3.9625,-3.9628,-3.9626,-3.963,-3.9626,-3.9619,-3.9627,-3.958,-3.9588,-3.9596,-3.9598,-3.9603,-3.9609,-3.9607,-3.9596,-3.9559,-3.9552,-3.9563,-3.9575,-3.9588,-3.9583,-3.9412,-3.9549,-3.9547,-3.9546,-3.9546,-3.9545,-3.9742,-3.976,-3.9742,-3.9749,-3.9739,-3.9734,-3.9748,-3.9726,-3.9732,-3.9732,-3.9706,-3.9721,-3.9707,-3.9701,-3.9694,-3.9706,-3.968,-3.9695,-3.9699,-3.9704,-3.9712,-3.9587,-3.9705,-3.9705,-3.9704,-3.9704,-3.9704,0,-3.9868,-3.9854,-3.986,-3.9853,-3.9858,-3.9822,-3.9813,-3.9821,-3.9834,-3.9824,-3.9828,-3.9839,-3.9846,-3.9821,-3.9825,-3.984,-3.9823,-3.9842,-3.9841,-3.9839,-3.9734,-3.9725,-3.9856,-3.9856,-3.9856,-3.9856,-3.9856,-3.9856,-3.9934,-3.9962,-3.9943,-3.9967,-3.9953,-3.9966,-3.9965,-3.9961,-3.9953,-3.9968,-3.9973,-3.9957,-3.9942,-3.9944,-3.995,-3.9943,-3.9947,-3.9973,-3.996,-3.9861,-3.9846,-3.9832,-3.9823,-3.9974,-3.9974,-4.0064,-4.0065,-4.0065]},{"header":{"parameterUnit":"m.s-1","parameterCategory":1,"la1":30.2991,"la2":30.254,"lo1":-89.0895,"lo2":-89.0444,"dy":0.0017,"dx":0.0017,"nx":28,"ny":28,"refTime":"2024-03-20T21:00:00:Z","depth":0,"parameterNumber":3,"parameterNumberName":"V-component_of_WINDS"},"data":[0,0,0,0,0,0,0,0,0,0,0,0,0,0,0,0,0,0,0,0,0,0,0,0,0,0,0,0,0,0,0,0,0,0,0,0,0,0,0,0,0,0,0,0,0,0,0,0,0,0,0,0,0,0,0,0,0,0,2.3796,2.3796,0,2.3867,2.3868,2.3869,2.3938,2.3939,2.394,2.3941,2.4011,2.4012,2.4013,0,0,0,0,0,0,0,0,0,0,0,0,0,2.3717,2.3718,2.3795,2.3796,2.3797,2.3867,2.3868,2.3869,2.3938,2.3939,2.394,2.3941,2.4011,2.4012,2.4013,0,0,0,0,0,0,0,0,0,0,0,0,0,2.3766,2.3718,2.3795,2.384,2.3845,2.3867,2.3868,2.3869,2.3938,2.3939,2.394,2.3942,2.401,2.4012,2.4013,2.3996,0,0,2.4018,2.4019,0,0,0,0,0,0,0,0,2.3763,2.3768,2.3833,2.3837,2.3843,2.3895,2.3866,2.3912,2.3937,2.3902,2.3941,2.3942,2.3971,2.3976,2.3986,2.3999,2.4002,2.4018,2.4019,2.402,2.402,0,0,0,0,0,0,0,2.3759,2.3766,2.3824,2.3834,2.384,2.3856,2.3865,2.3875,2.3928,2.3906,2.3911,2.3918,2.3974,2.3985,2.3989,2.4003,2.4018,2.402,2.4021,2.4021,2.4005,2.4004,0,0,0,0,0,0,2.3749,2.3762,2.3822,2.3826,2.3805,2.3856,2.3866,2.3877,2.3928,2.3938,2.3917,2.3921,2.3981,2.3987,2.3991,2.3974,2.402,2.4021,2.4022,2.4007,2.4005,2.4003,0,0,0,0,0,0,2.3747,2.3754,2.3819,2.3796,2.3805,2.3856,2.3868,2.3877,2.3888,2.3937,2.3947,2.3918,2.3983,2.3989,2.3994,2.3978,2.4022,2.4023,2.4008,2.4006,2.4004,2.394,0,0,0,0,0,0,2.3745,2.3753,2.3747,2.3795,2.3806,2.3821,2.3867,2.3878,2.3891,2.3897,2.3941,2.3949,2.3984,2.3992,2.3996,2.3981,2.4025,2.401,2.4007,2.4005,2.3944,2.3936,2.3929,0,0,0,0,0,2.3742,2.3725,2.3746,2.3753,2.38,2.382,2.3826,2.3868,2.3889,2.3884,2.3915,2.3948,2.3979,2.3992,2.3997,2.3982,2.4011,2.4008,2.4005,2.3947,2.3937,2.3929,0,0,0,0,0,0,2.3673,2.3732,2.3756,2.3755,2.3782,2.3832,2.3826,2.3856,2.3876,2.3881,2.3931,2.394,2.394,2.3962,2.3975,2.3968,2.4,2.3997,2.3953,2.3945,2.3938,2.3932,2.4026,0,0,0,0,0,2.3658,2.367,2.3721,2.3715,2.3727,2.3774,2.3784,2.3814,2.3843,2.3855,2.3887,2.3913,2.3929,2.3938,2.3955,2.3947,2.3958,2.3939,2.3932,2.3926,2.3923,2.3921,2.3913,2.3993,2.3994,2.3994,0,0,2.3626,2.366,2.3665,2.3702,2.3726,2.3737,2.3783,2.3792,2.38,2.3856,2.3863,2.3887,2.392,2.3919,2.3919,2.3937,2.3904,2.3922,2.3917,2.3918,2.3917,2.3909,2.3902,2.3991,2.3992,2.3992,0,0,2.3575,2.3602,2.36,2.3623,2.366,2.3691,2.3691,2.3736,2.3755,2.3763,2.3805,2.3815,2.3841,2.3863,2.3877,2.3834,2.3865,2.3838,2.38,2.3797,2.3791,2.3785,2.377,2.3763,2.3836,2.3835,2.3835,0,2.3531,2.3549,2.3595,2.3601,2.3616,2.3668,2.3667,2.3687,2.3727,2.3736,2.3755,2.3789,2.3815,2.3819,2.3809,2.3819,2.3819,2.3833,2.3788,2.3783,2.3779,2.3764,2.3758,2.3832,2.3832,2.3833,2.3833,0,2.3493,2.3505,2.3499,2.3537,2.3552,2.3554,2.3599,2.3608,2.3637,2.3666,2.3673,2.3706,2.3731,2.3735,2.3762,2.3743,2.3753,2.3779,2.3812,2.3767,2.3754,2.3749,2.3827,2.3828,2.3829,2.383,0,0,2.3399,2.3463,2.346,2.3479,2.3523,2.3533,2.3537,2.3563,2.3569,2.3595,2.36,2.3621,2.3646,2.3662,2.3693,2.369,2.3654,2.3717,2.3719,2.3704,2.3634,2.3614,2.3607,2.3675,2.3674,2.3673,2.3632,0,2.3354,2.3367,2.3408,2.3408,2.3419,2.3469,2.3473,2.35,2.3528,2.3541,2.3571,2.3585,2.3617,2.3627,2.3627,2.3658,2.364,2.3662,2.3679,2.3679,2.3669,2.36,2.3579,2.3538,2.3627,2.3626,2.3626,0,2.3304,2.3328,2.3328,2.3373,2.3379,2.3382,2.3409,2.3421,2.3453,2.3473,2.3492,2.3526,2.3533,2.3564,2.3574,2.3588,2.3597,2.3613,2.3613,2.3616,2.3649,2.3601,2.3526,2.352,2.3618,2.3619,2.3619,0,2.3235,2.3267,2.3272,2.3286,2.3338,2.3339,2.336,2.3394,2.3406,2.3429,2.3438,2.3461,2.3474,2.3491,2.353,2.3549,2.3535,2.357,2.3552,2.3551,2.3546,2.3546,2.3471,2.3553,2.3553,2.3553,2.3553,0,2.3181,2.3179,2.3242,2.3244,2.3244,2.3292,2.329,2.3316,2.3345,2.3354,2.3398,2.3404,2.3456,2.3469,2.35,2.3503,2.3508,2.3524,2.3532,2.352,2.3518,2.3527,2.353,2.3551,2.3552,2.3552,2.3552,0,2.3104,2.3146,2.3154,2.3203,2.3215,2.3213,2.3254,2.3259,2.3289,2.3299,2.3304,2.3351,2.3368,2.341,2.3437,2.3458,2.3453,2.3468,2.3442,2.3447,2.3427,2.3428,2.3355,2.3348,2.3433,2.3433,2.3432,0,2.3066,2.3066,2.3116,2.3125,2.3145,2.3159,2.3173,2.3219,2.3232,2.3268,2.3268,2.3289,2.3308,2.3332,2.3368,2.339,2.3405,2.3378,2.3409,2.3397,2.3405,2.3404,2.3404,2.3371,2.337,2.3369,2.3369,0,2.2995,2.3016,2.3034,2.306,2.3075,2.3097,2.3121,2.3126,2.3179,2.319,2.3209,2.3223,2.3252,2.3272,2.3299,2.332,2.3353,2.3359,2.3356,2.3343,2.3328,2.3336,2.3424,2.336,2.3361,2.3362,2.3362,2.3362,2.2937,2.2939,2.2974,2.2993,2.3017,2.3039,2.3046,2.3077,2.3094,2.3121,2.3148,2.3163,2.3195,2.3235,2.3255,2.3267,2.3284,2.3279,2.3278,2.3276,2.3271,2.3326,2.3272,2.3272,2.3273,2.3273,2.3273,0,2.2868,2.2893,2.291,2.2943,2.2958,2.2989,2.3018,2.3028,2.3041,2.3069,2.3087,2.3108,2.3128,2.3166,2.3188,2.3191,2.3206,2.3195,2.3195,2.32,2.3254,2.3255,2.3182,2.3182,2.3182,2.3182,2.3182,2.3182,2.2834,2.284,2.2865,2.2883,2.2908,2.2924,2.2938,2.2959,2.2981,2.3003,2.302,2.3045,2.3076,2.3102,2.3121,2.3132,2.3138,2.3122,2.3137,2.3187,2.3196,2.3204,2.3205,2.3123,2.3123,2.3082,2.3081,2.3081]}]]